GW4266 Weather Reports


time (UTC)temp
F
wind
direction
speed
knots
gust
knots
rain 1hr
in
rain 24hr
in
rain mn
in
humidity
%
barometer
mb
20260507000222 63 57 1.7 4.3 0.00 0.00 0.00 84 1016.8
20260506235719 63 43 4.3 7.0 0.00 0.00 0.00 84 1016.8
20260506235214 63 58 2.6 5.2 0.00 0.00 0.00 84 1016.9
20260506234711 63 333 0.0 3.5 0.00 0.00 0.00 84 1016.5
20260506234209 63 329 1.7 6.1 0.00 0.00 0.00 84 1016.6
20260506233706 63 25 1.7 1.7 0.00 0.00 0.00 85 1016.8
20260506233202 63 53 1.7 5.2 0.00 0.00 0.00 84 1017.0
20260506232659 62 50 0.0 4.3 0.00 0.00 0.00 84 1016.6
20260506232154 62 85 2.6 7.0 0.00 0.00 0.00 84 1016.6
20260506231651 63 38 1.7 5.2 0.00 0.00 0.00 84 1016.5
20260506231150 63 353 2.6 2.6 0.00 0.00 0.00 84 1016.4
20260506230646 62 22 0.0 6.1 0.00 0.00 0.00 84 1016.6
20260506230143 62 4 7.0 7.0 0.00 0.00 0.00 85 1016.6
20260506225640 62 45 1.7 5.2 0.00 0.00 0.00 85 1016.5
20260506225137 62 3 2.6 7.8 0.00 0.00 0.00 84 1016.8
20260506224633 62 29 0.0 7.8 0.00 0.00 0.00 84 1016.8
20260506224130 62 343 0.0 5.2 0.00 0.00 0.00 85 1016.7
20260506223626 62 0 0.0 7.8 0.00 0.00 0.00 84 1016.7
20260506223122 62 38 5.2 7.8 0.00 0.00 0.00 84 1016.6
20260506222620 62 0 3.5 7.8 0.00 0.00 0.00 84 1016.5
20260506222116 62 58 4.3 4.3 0.00 0.00 0.00 84 1016.5
20260506221613 63 9 5.2 6.1 0.00 0.00 0.00 83 1016.4
20260506221111 63 72 2.6 7.0 0.00 0.00 0.00 83 1016.5
20260506220607 63 58 1.7 7.8 0.00 0.00 0.00 83 1016.5
20260506215559 63 55 5.2 8.7 0.00 0.00 0.00 82 1016.5
20260506215055 63 19 4.3 9.6 0.00 0.00 0.00 82 1016.5
20260506214552 63 353 5.2 8.7 0.00 0.00 0.00 82 1016.1
20260506214049 64 356 4.3 6.1 0.00 0.00 0.00 82 1016.4
20260506213548 63 47 5.2 7.0 0.00 0.00 0.00 83 1016.5
20260506213045 64 42 4.3 7.8 0.00 0.00 0.00 82 1016.4
20260506212541 64 34 1.7 7.8 0.00 0.00 0.00 82 1016.1
20260506212036 64 280 1.7 9.6 0.00 0.00 0.00 82 1016.3
20260506211532 64 24 1.7 7.0 0.00 0.00 0.00 82 1016.4
20260506211030 64 22 5.2 7.0 0.00 0.00 0.00 81 1016.5
20260506210526 64 20 3.5 11.3 0.00 0.00 0.00 82 1016.4
20260506210023 65 18 3.5 11.3 0.00 0.00 0.00 81 1016.3
20260506205520 65 8 2.6 7.8 0.00 0.00 0.00 81 1016.3
20260506205015 66 15 4.3 9.6 0.00 0.00 0.00 81 1016.8
20260506204513 67 349 2.6 7.0 0.00 0.00 0.00 79 1016.5
20260506204010 66 50 7.0 9.6 0.00 0.00 0.00 80 1016.5
20260506203508 66 43 2.6 6.1 0.00 0.00 0.00 81 1016.5
20260506202959 67 354 2.6 7.0 0.00 0.00 0.00 80 1016.6
20260506202456 67 317 2.6 6.1 0.00 0.00 0.00 80 1016.5
20260506201951 68 286 4.3 6.1 0.00 0.00 0.00 80 1016.8
20260506201450 69 249 1.7 7.8 0.00 0.00 0.00 79 1016.3
20260506200946 69 34 0.0 5.2 0.00 0.00 0.00 80 1016.2
20260506200442 69 332 3.5 7.8 0.00 0.00 0.00 80 1016.2
20260506195938 69 52 2.6 5.2 0.00 0.00 0.00 80 1016.0
20260506195436 71 22 2.6 5.2 0.00 0.00 0.00 80 1016.2
20260506194932 69 29 5.2 7.0 0.00 0.00 0.00 80 1016.2
20260506194430 70 53 1.7 5.2 0.00 0.00 0.00 81 1016.1
20260506193926 69 275 0.0 7.8 0.00 0.00 0.00 82 1016.1
20260506193424 69 80 0.0 7.8 0.00 0.00 0.00 81 1016.1
20260506192920 69 18 0.0 11.3 0.00 0.00 0.00 81 1015.9
20260506192417 70 303 1.7 7.0 0.00 0.00 0.00 82 1015.9
20260506191914 69 347 4.3 10.4 0.00 0.00 0.00 83 1016.0
20260506191410 70 284 2.6 8.7 0.00 0.00 0.00 83 1015.8
20260506190908 70 250 2.6 6.1 0.00 0.00 0.00 84 1016.1
20260506190404 71 270 3.5 7.0 0.00 0.00 0.00 83 1016.0
20260506185901 73 28 5.2 6.1 0.00 0.00 0.00 82 1016.1
20260506185358 76 356 0.0 3.5 0.00 0.00 0.00 77 1016.1
20260506184855 77 344 4.3 7.8 0.00 0.00 0.00 75 1016.0
20260506184352 78 19 1.7 4.3 0.00 0.00 0.00 73 1015.8
20260506183849 78 14 5.2 5.2 0.00 0.00 0.00 74 1015.8
20260506183344 79 7 4.3 6.1 0.00 0.00 0.00 73 1015.7
20260506182842 77 76 0.0 4.3 0.00 0.00 0.00 76 1015.9
20260506182338 77 282 0.0 6.1 0.00 0.00 0.00 74 1015.6
20260506181836 76 284 0.9 5.2 0.00 0.00 0.00 75 1015.6
20260506181334 77 5 1.7 5.2 0.00 0.00 0.00 72 1015.6
20260506180831 76 0 0.0 2.6 0.00 0.00 0.00 73 1015.9
20260506180327 77 336 2.6 4.3 0.00 0.00 0.00 74 1015.7
20260506175823 77 72 0.0 2.6 0.00 0.00 0.00 73 1015.6
20260506175320 77 105 0.9 4.3 0.00 0.00 0.00 73 1015.9
20260506174818 76 50 0.0 3.5 0.00 0.00 0.00 75 1015.5
20260506174315 77 100 0.0 1.7 0.00 0.00 0.00 75 1015.6
20260506173812 75 98 0.0 0.0 0.00 0.00 0.00 76 1015.6
20260506173309 73 82 2.6 3.5 0.00 0.00 0.00 78 1015.5
20260506172806 73 90 2.6 5.2 0.00 0.00 0.00 78 1015.5
20260506172306 72 84 0.9 3.5 0.00 0.00 0.00 79 1015.7
20260506171800 72 356 0.0 4.3 0.00 0.00 0.00 78 1015.6
20260506171257 73 153 0.9 3.5 0.00 0.00 0.00 80 1015.8
20260506170755 71 106 3.5 3.5 0.00 0.00 0.00 80 1015.8
20260506170251 70 338 0.0 2.6 0.00 0.00 0.00 83 1015.6
20260506165749 69 95 2.6 3.5 0.00 0.00 0.00 83 1015.8
20260506165246 69 87 2.6 6.1 0.00 0.00 0.00 85 1015.9
20260506164743 67 144 0.0 7.8 0.00 0.00 0.00 86 1016.1
20260506164240 68 351 0.0 6.1 0.00 0.00 0.00 87 1016.0
20260506163737 66 34 2.6 8.7 0.00 0.00 0.00 86 1016.2
20260506163231 66 61 2.6 5.2 0.00 0.00 0.00 88 1016.4
20260506162728 65 7 4.3 4.3 0.00 0.00 0.00 88 1016.4
20260506162226 64 44 3.5 6.1 0.00 0.00 0.00 89 1016.8
20260506161723 64 0 0.0 7.8 0.00 0.00 0.00 90 1016.9
20260506161220 64 5 3.5 12.2 0.00 0.00 0.00 90 1017.1
20260506160718 65 6 0.9 6.1 0.00 0.00 0.00 90 1017.7
20260506160214 65 54 7.0 13.0 0.00 0.00 0.00 91 1017.6
20260506155713 65 21 4.3 13.9 0.00 0.00 0.00 91 1017.0
20260506155209 65 45 5.2 13.9 0.00 0.00 0.00 91 1016.9
20260506153311 67 51 0.0 13.9 0.00 0.00 0.00 91 1016.1
20260506152808 68 333 2.6 13.0 0.00 0.00 0.00 90 1016.5
20260506152306 68 12 2.6 7.8 0.00 0.00 0.00 90 1016.2
20260506151804 69 345 3.5 13.0 0.00 0.00 0.00 90 1015.6
20260506151300 72 27 2.6 6.1 0.00 0.00 0.00 87 1015.6
20260506150757 77 16 1.7 2.6 0.00 0.00 0.00 87 1015.8
20260506150303 78 105 0.0 0.9 0.00 0.00 0.00 87 1015.2
20260506145751 78 113 0.0 2.6 0.00 0.00 0.00 88 1015.3
20260506145247 78 111 0.0 3.5 0.00 0.00 0.00 88 1014.8
20260506144745 78 144 0.9 2.6 0.00 0.00 0.00 87 1014.7
20260506144242 78 138 0.0 2.6 0.00 0.00 0.00 88 1014.6
20260506143739 78 131 3.5 4.3 0.00 0.00 0.00 88 1014.3
20260506143237 78 150 1.7 4.3 0.00 0.00 0.00 88 1014.5
20260506142735 78 160 0.0 1.7 0.00 0.00 0.00 88 1014.3
20260506142233 78 161 0.0 5.2 0.00 0.00 0.00 88 1014.2
20260506141731 78 139 0.0 2.6 0.00 0.00 0.00 88 1013.9
20260506141229 77 135 2.6 2.6 0.00 0.00 0.00 89 1013.9
20260506140726 77 114 1.7 4.3 0.00 0.00 0.00 89 1014.0
20260506140223 77 146 2.6 2.6 0.00 0.00 0.00 90 1014.2
20260506135719 77 193 0.0 2.6 0.00 0.00 0.00 91 1014.2
20260506135216 77 165 0.9 1.7 0.00 0.00 0.00 91 1014.4
20260506134713 76 150 0.0 2.6 0.00 0.00 0.00 92 1014.1
20260506134209 76 97 0.0 3.5 0.00 0.00 0.00 92 1013.7
20260506133706 76 98 2.6 3.5 0.00 0.00 0.00 92 1013.7
20260506133203 76 148 3.5 4.3 0.00 0.00 0.00 92 1013.8
20260506132700 76 98 0.0 2.6 0.00 0.00 0.00 93 1013.7
20260506132157 75 118 2.6 3.5 0.00 0.00 0.00 93 1013.7
20260506131655 76 153 0.0 3.5 0.00 0.00 0.00 93 1013.7
20260506131150 76 150 0.0 3.5 0.00 0.00 0.00 93 1013.7
20260506130647 75 94 1.7 2.6 0.00 0.00 0.00 94 1013.4
20260506130145 75 126 0.0 3.5 0.00 0.00 0.00 94 1013.4
20260506125643 75 135 0.0 4.3 0.00 0.00 0.00 94 1013.3
20260506125140 75 108 0.0 4.3 0.00 0.00 0.00 94 1013.6
20260506124638 75 142 0.0 3.5 0.00 0.00 0.00 95 1013.1
20260506124136 75 111 1.7 1.7 0.00 0.00 0.00 95 1013.1
20260506123633 75 108 0.0 2.6 0.00 0.00 0.00 95 1013.1
20260506123132 74 109 1.7 2.6 0.00 0.00 0.00 95 1013.3
20260506122628 74 116 0.0 2.6 0.00 0.00 0.00 95 1013.3
20260506122126 74 125 0.9 0.9 0.00 0.00 0.00 95 1013.1
20260506121623 74 150 1.7 2.6 0.00 0.00 0.00 95 1013.2
20260506121119 74 95 1.7 2.6 0.00 0.00 0.00 95 1013.2
20260506120618 74 119 0.0 0.9 0.00 0.00 0.00 95 1013.2
20260506120115 74 105 0.0 0.9 0.00 0.00 0.00 95 1013.2
20260506115613 74 105 0.0 0.0 0.00 0.00 0.00 95 1013.3
20260506115111 74 122 1.7 1.7 0.00 0.00 0.00 94 1013.3
20260506114608 74 113 0.0 1.7 0.00 0.00 0.00 94 1013.0
20260506114106 74 114 1.7 1.7 0.00 0.00 0.00 94 1013.0
20260506113604 74 110 0.0 1.7 0.00 0.00 0.00 94 1013.1
20260506113101 74 105 0.9 0.9 0.00 0.00 0.00 94 1013.3
20260506112557 74 90 0.0 0.0 0.00 0.00 0.00 94 1013.4
20260506112055 74 90 0.0 0.0 0.00 0.00 0.00 94 1013.3
20260506111553 75 90 0.0 0.9 0.00 0.00 0.00 94 1013.1
20260506111049 75 105 0.0 0.0 0.00 0.00 0.00 94 1013.2
20260506110547 75 83 0.0 0.0 0.00 0.00 0.00 94 1013.3
20260506110044 75 98 0.0 0.0 0.00 0.00 0.00 93 1013.1
20260506105540 75 105 0.0 0.0 0.00 0.00 0.00 93 1013.1
20260506105038 75 110 0.0 0.0 0.00 0.00 0.00 93 1013.0
20260506104536 75 110 0.0 1.7 0.00 0.00 0.00 93 1012.9
20260506104033 75 119 0.0 1.7 0.00 0.00 0.00 93 1013.0
20260506103530 75 147 1.7 3.5 0.00 0.00 0.00 93 1013.1
20260506103027 75 98 0.0 0.9 0.00 0.00 0.00 93 1012.9
20260506102525 75 113 0.0 1.7 0.00 0.00 0.00 93 1012.7
20260506102022 75 105 0.0 0.9 0.00 0.00 0.00 93 1012.8
20260506101519 75 156 0.0 0.0 0.00 0.00 0.00 93 1012.9
20260506101016 75 119 0.0 2.6 0.00 0.00 0.00 93 1012.6
20260506100514 75 256 0.0 1.7 0.00 0.00 0.00 92 1012.6
20260506100012 75 125 0.0 0.0 0.00 0.00 0.00 93 1012.5
20260506095511 75 147 0.0 1.7 0.00 0.00 0.00 92 1012.5
20260506095006 75 119 0.0 0.9 0.00 0.00 0.00 92 1012.4
20260506094505 75 188 0.9 0.9 0.00 0.00 0.00 92 1012.5
20260506094002 75 116 0.0 0.9 0.00 0.00 0.00 92 1012.4
20260506093500 75 180 0.0 0.9 0.00 0.00 0.00 92 1012.1
20260506092957 75 84 0.9 3.5 0.00 0.00 0.00 92 1012.3
20260506092455 75 171 0.0 2.6 0.00 0.00 0.00 92 1012.1
20260506091951 75 235 0.0 1.7 0.00 0.00 0.00 92 1012.0
20260506091450 75 216 0.0 0.9 0.00 0.00 0.00 92 1012.0
20260506090947 75 164 0.0 1.7 0.00 0.00 0.00 93 1012.4
20260506090445 75 116 0.0 0.9 0.00 0.00 0.00 93 1012.2
20260506085940 75 113 0.0 2.6 0.00 0.00 0.00 93 1012.0
20260506085438 75 159 0.0 3.5 0.00 0.00 0.00 92 1012.0
20260506084934 75 193 0.0 2.6 0.00 0.00 0.00 92 1012.0
20260506084431 75 180 0.0 1.7 0.00 0.00 0.00 92 1012.1
20260506083927 75 241 0.0 1.7 0.00 0.00 0.00 92 1011.9
20260506083424 75 193 0.0 0.9 0.00 0.00 0.00 92 1011.8
20260506082922 75 222 0.0 1.7 0.00 0.00 0.00 92 1012.1
20260506082419 75 247 0.0 4.3 0.00 0.00 0.00 92 1012.1
20260506081914 75 164 0.0 1.7 0.00 0.00 0.00 92 1012.1
20260506081413 75 180 0.0 2.6 0.00 0.00 0.00 92 1012.2
20260506080910 75 193 0.0 1.7 0.00 0.00 0.00 92 1011.9
20260506080406 75 126 1.7 2.6 0.00 0.00 0.00 92 1012.0
20260506073350 75 142 1.7 4.3 0.00 0.00 0.00 91 1012.2
20260506072847 75 90 0.0 4.3 0.00 0.00 0.00 91 1012.3
20260506072345 75 164 1.7 2.6 0.00 0.00 0.00 91 1012.2
20260506071843 75 122 1.7 3.5 0.00 0.00 0.00 91 1012.4
20260506071341 76 200 1.7 4.3 0.00 0.00 0.00 91 1012.4
20260506070837 76 190 1.7 6.1 0.00 0.00 0.00 91 1012.4
20260506070334 76 162 0.0 5.2 0.00 0.00 0.00 91 1012.3
20260506062311 75 195 0.9 2.6 0.00 0.00 0.00 92 1012.5
20260506061807 75 171 0.0 3.5 0.00 0.00 0.00 92 1012.3
20260506061304 75 150 0.0 2.6 0.00 0.00 0.00 92 1012.4
20260506060802 75 116 3.5 3.5 0.00 0.00 0.00 92 1012.4
20260506060300 75 124 1.7 2.6 0.00 0.00 0.00 92 1012.5
20260506051231 76 135 2.6 6.1 0.00 0.00 0.00 91 1012.4
20260506050730 76 180 1.7 6.1 0.00 0.00 0.00 91 1012.5
20260506050227 75 204 1.7 6.1 0.00 0.00 0.00 91 1012.5
20260506044717 76 95 0.0 4.3 0.00 0.00 0.00 92 1012.3
20260506044215 76 180 1.7 4.3 0.00 0.00 0.00 92 1012.3
20260506043712 76 187 0.0 3.5 0.00 0.00 0.00 92 1012.3
20260506043210 76 140 3.5 3.5 0.00 0.00 0.00 92 1012.4
20260506042708 76 167 0.0 3.5 0.00 0.00 0.00 92 1012.5
20260506042206 76 160 2.6 2.6 0.00 0.00 0.00 91 1012.5
20260506041704 76 125 0.0 4.3 0.00 0.00 0.00 91 1012.4
20260506041201 76 122 1.7 6.1 0.00 0.00 0.00 91 1012.3
20260506040658 76 147 1.7 3.5 0.00 0.00 0.00 91 1012.1
20260506040155 76 112 1.7 5.2 0.00 0.00 0.00 91 1012.2
20260506035652 76 216 0.9 6.1 0.00 0.00 0.00 91 1012.0
20260506035149 76 121 0.0 4.3 0.00 0.00 0.00 91 1012.2
20260506034646 76 153 0.0 3.5 0.00 0.00 0.00 91 1012.2
20260506034143 76 180 0.0 3.5 0.00 0.00 0.00 91 1011.9
20260506033640 76 150 0.0 4.3 0.00 0.00 0.00 90 1011.9
20260506033137 76 97 0.0 4.3 0.00 0.00 0.00 90 1011.9
20260506032634 77 113 0.0 4.3 0.00 0.00 0.00 90 1011.8
20260506032131 77 135 2.6 2.6 0.00 0.00 0.00 90 1012.0
20260506031628 77 123 1.7 2.6 0.00 0.00 0.00 89 1011.9
20260506031125 77 105 1.7 5.2 0.00 0.00 0.00 89 1011.9
20260506030623 77 138 1.7 2.6 0.00 0.00 0.00 88 1011.7
20260506030120 77 156 1.7 3.5 0.00 0.00 0.00 88 1011.6
20260506025617 77 104 1.7 2.6 0.00 0.00 0.00 88 1011.5
20260506025113 77 172 0.0 3.5 0.00 0.00 0.00 88 1011.5
20260506024611 77 135 0.0 0.0 0.00 0.00 0.00 88 1011.5
20260506024107 77 84 0.0 2.6 0.00 0.00 0.00 88 1011.3
20260506023603 77 125 0.0 0.9 0.00 0.00 0.00 87 1011.3
20260506023100 77 120 1.7 1.7 0.00 0.00 0.00 87 1011.3
20260506022558 77 109 0.0 1.7 0.00 0.00 0.00 87 1011.1
20260506022055 77 145 0.0 1.7 0.00 0.00 0.00 86 1011.0
20260506021553 78 156 0.0 0.0 0.00 0.00 0.00 86 1010.8
20260506021050 78 153 0.0 1.7 0.00 0.00 0.00 86 1010.8
20260506020547 78 114 0.0 3.5 0.00 0.00 0.00 85 1010.6
20260506020044 78 144 0.9 2.6 0.00 0.00 0.00 85 1010.5
20260506015542 78 113 0.0 2.6 0.00 0.00 0.00 85 1010.3
20260506015039 78 113 1.7 2.6 0.00 0.00 0.00 85 1010.2
20260506014536 78 156 1.7 3.5 0.00 0.00 0.00 85 1010.0
20260506014032 78 113 0.0 2.6 0.00 0.00 0.00 84 1010.2
20260506013531 78 147 0.0 1.7 0.00 0.00 0.00 84 1010.4
20260506013026 78 124 0.0 2.6 0.00 0.00 0.00 84 1010.2
20260506012523 79 112 0.0 1.7 0.00 0.00 0.00 83 1010.2
20260506012020 79 144 0.0 1.7 0.00 0.00 0.00 83 1010.0
20260506011517 79 138 0.0 1.7 0.00 0.00 0.00 82 1010.1
20260506011013 80 138 1.7 1.7 0.00 0.00 0.00 81 1010.2
20260506010513 80 119 0.0 0.9 0.00 0.00 0.00 80 1010.1
20260506010009 80 140 0.0 0.0 0.00 0.00 0.00 80 1010.2
20260506005506 81 125 0.0 0.0 0.00 0.00 0.00 79 1010.1
20260506005002 81 180 0.0 1.7 0.00 0.00 0.00 79 1010.0
20260506004500 81 143 0.0 2.6 0.00 0.00 0.00 79 1010.3
20260506003955 81 125 0.0 1.7 0.00 0.00 0.00 78 1010.0
20260506003452 82 164 0.0 1.7 0.00 0.00 0.00 78 1010.2
20260506002948 82 119 0.0 1.7 0.00 0.00 0.00 78 1010.0
20260506002445 82 126 0.0 1.7 0.00 0.00 0.00 77 1010.2
20260506001940 82 125 0.0 0.9 0.00 0.00 0.00 76 1010.0
20260506001437 82 116 0.0 1.7 0.00 0.00 0.00 77 1010.2
20260506000934 83 127 0.0 0.0 0.00 0.00 0.00 76 1010.2